THOR ABLESTAR DEB, 1504

Orbit data source: Space-Track

THOR ABLESTAR DEB, 1504 is space debris in LEO originally from a launch on Fri, 13 Aug 1965 UTC launched from the Air Force Western Test Range (AFWTR). Debris objects in space refer to the collection of defunct objects orbiting the Earth. Examples of debris include non-operational satellites, rocket bodies, and fragments generated from explosions, collisions, or faulty payload assembly.

Loading next visibility...
Identifier
1504, 1965-065A
Orbit
LEO
Country
Flag of USUS
Related business
Manufacturer
NRL
Mission
Spacecraft
Bus & Motor
Unknown
Mass
Unknown
Launch date (UTC)
1965-08-13 (60 years ago)
Launch vehicle
Unknown
Launch site
Air Force Western Test Range (AFWTR)
Object type
Payload
Rocket body
Debris
Shape & HBR
Unknown shape, 0.1 m
Radar Cross Section
Small (<0.1 m²)

Expand to show TLE details & history
Last TLE update: 18 hours ago

TLE from 18 hours ago
0 THOR ABLESTAR DEB
1 01504U 65065A   25350.19540975  .00000211  00000-0  36371-3 0  9994
2 01504  89.9551 242.4055 0067352  18.8909 106.0903 13.40333276943196
Epoch: 2025-12-16T04:41Z
TLE epoch observation values (Epoch: 2025-12-16T04:41:23.402Z)
Latitude
54.37234°
Longitude
-93.08745°
Altitude
1,131.359 km
Speed
7.285 km/s
True Right ascension
04h 09m 22s
True Declination
54° 13' 03"
Sunlit
Object was in full shadow at epoch
Visualization orbit readout
Latitude
Unknown
Longitude
Unknown
Altitude
Unknown
Speed
Unknown
Apparent Right ascension
Unknown
Apparent Declination
Unknown
Sunlit
N/A
Visualization observer readout
Local Sidereal Time
21:03:29
Azimuth
Unknown
Elevation
Unknown
Doppler factor
Unknown
Orbital elements
Apogee altitude
1,155.503 km
Perigee altitude
1,054.701 km
Semi-major axis
7,483.239 km
Eccentricity
0.00674
Inclination
89.9551°
RAAN
242.4055°
Arg. of periapsis
18.8909°
True anomaly
106.83012°
Mean anomaly
106.0903°
Eccentric anomaly
106.46038°
Mean motion
3.35281 °/min
Orbital period
107.37 mins
BSTAR
0.00036371
Loading maneuver chart data...
Computing Atmospheric mass density...
Loading historical data...
Loading historical data...
Loading historical data...
Loading historical data...
Loading historical data...
Loading historical data...
Loading historical data...

Documentation

Showing up to 5 results
|